Location: Molveno
(46.1500°N, 10.9667°E)
Time: 16:44:41
(UTC+00:00)

Cosmos 1844 - Pass Details

Date: 05 July 2020
Orbit: 822 x 868 km, 70.9° (Epoch: 11 August)

Event Time Altitude Azimuth Distance (km) Brightness Sun altitude
Rises 20:16:26 0° 333° (NNW) 3,460 8.6 -9.5°
Reaches altitude 10° 20:18:55 10° 335° (NNW) 2,516 7.6 -9.8°
Maximum altitude 20:24:44 81° 63° (ENE) 876 3.8 -10.5°
Enters shadow 20:29:43 14° 150° (SSE) 2,206 5.2 -11.0°
